Location: Colebrook
(42.0017°N, 73.0973°W)
Time: 20:37:40
(UTC-04:00)

ISS - Pass Details

Date: 28 September 2021
Orbit: 417 x 423 km, 51.6° (Epoch: 21 October)

Event Time Altitude Azimuth Distance (km) Brightness Sun altitude
Rises 21:14:08 0° 307° (NW) 2,367 1.2 -28.9°
Reaches altitude 10° 21:16:17 10° 314° (NW) 1,501 -0.1 -29.3°
Enters shadow 21:16:59 15° 318° (NW) 1,233 -0.7 -29.4°
